www.pogodaiklimat.ru

Погода и климат >> Архив погоды >> Россия >> Камчатский край >> Начики


АРХИВ ПОГОДЫ в Начиках

Время (UTC), дата Ветер
(напр.,м/с)
 
Видим.   Явления Облачность Т
(С)
Тd
(С)
f
(%)
Тe
(С)
Тes
(С)
Комфортность P
(гПа)
Po
(гПа)
Тmin
(С)
Tmax
(С)
R
(мм)
R24
(мм)
S
(см)
03 17.02 З 2 50 км 6/4 1000 м
[Sc Ci fib]
-9.0 -18.5 46 -13 -12 991.7 952.0
06 17.02 З 1 50 км 3/3 1000 м
[Sc]
-10.8 -18.5 53 -13 -13 992.0 952.0
09 17.02 ЮВ 1 50 км 3/0
[Ci sp]
-25.3 -28.4 75 -29 -29 997.2 954.7 -8.7 0.0
12 17.02 Ю 1 50 км 3/0
[Ci sp]
-30.8 -34.7 68 -35 -35 опасность
обморожения
999.5 956.0
15 17.02 штиль 0 50 км ясно -34.3 -38.8 64 -34 -34 опасность
обморожения
999.7 955.5
18 17.02 ЮВ 1 50 км ясно -36.2 -41.0 61 -41 -41 опасность
обморожения
1001.0 956.5
21 17.02 ЮВ 1 50 км ясно -37.2 -42.2 59 -42 -42 опасность
обморожения
1002.9 958.1 -37.3 158
00 18.02 штиль 0 50 км ясно -18.6 -23.5 65 -19 -14 1000.6 959.0 -37.4
03 18.02 ЮВ 1 50 км 3/3 1000 м
[Sc]
-10.7 -19.1 50 -13 -10 1000.3 960.0
06 18.02 З 1 50 км 8/3 1000 м
[Sc Ac trans Ci fib]
-11.8 -18.8 56 -14 -14 1001.8 961.3
09 18.02 штиль 0 50 км ледяные иглы 6/3 1000 м
[Sc Ac trans]
-24.7 -27.8 75 -25 -25 1006.8 964.0 -7.9 0.0
12 18.02 штиль 0 50 км ?/? -28.8 -32.8 68 -29 -29 1007.9 964.3
15 18.02 штиль 0 50 км 4/3 1000 м
[Sc]
-25.8 -29.0 74 -26 -26 1009.8 966.7
18 18.02 штиль 0 50 км 6/3 1000 м
[Sc Ac trans]
-30.2 -34.3 67 -30 -30 1010.5 966.6
21 18.02 штиль 0 50 км 9/6 1000 м
[Sc Ac trans Ci sp]
-31.7 -35.9 66 -32 -32 опасность
обморожения
1012.4 968.2 -31.9 0.0 157
00 19.02 штиль 0 4000 м слаб. ливневой снег 9/8 1000 м
[Cb cap Ci sp]
-16.6 -20.3 73 -17 -16 1010.3 968.7
03 19.02 штиль 0 4000 м слаб. ливневой снег 9/9 600 м
[Cb cap]
-8.4 -14.6 61 -9 -8 1008.8 968.5
06 19.02 Ю 1 4000 м слаб. ливневой снег 10/6 600 м
[Cb cap Ci sp]
-9.9 -13.8 73 -12 -12 1009.8 969.3
09 19.02 штиль 0 50 км {ливн. осадки} 3/3 1000 м
[Sc]
-23.5 -26.5 76 -24 -24 1013.6 970.7 -6.8 0.2
12 19.02 Ю 1 50 км {ливн. осадки} 6/6 600 м
[Sc]
-28.7 -32.5 70 -33 -33 опасность
обморожения
1014.1 970.3
15 19.02 ЮВ 1 50 км 8/4 1000 м
[Sc Ci sp]
-31.8 -36.0 66 -36 -36 опасность
обморожения
1014.8 970.4
18 19.02 штиль 0 50 км 4/4 1000 м
[Sc]
-31.9 -36.1 66 -32 -32 опасность
обморожения
1015.0 970.6
21 19.02 штиль 0 50 км местами туман поземный 9/3 300 м
[St Ci fib]
-33.4 -37.9 64 -33 -33 опасность
обморожения
1015.6 970.9 -33.8 0.0 156
00 20.02 штиль 0 50 км ясно -18.3 -21.6 75 -18 -13 1014.0 972.0
03 20.02 штиль 0 50 км 3/3 1000 м
[Sc]
-9.5 -17.5 52 -10 -6 1011.2 970.7
06 20.02 ЮЗ 2 50 км 3/3 1000 м
[Sc]
-10.5 -17.8 55 -15 -15 1009.9 969.3
09 20.02 Ю 1 50 км ясно -26.6 -30.0 73 -30 -30 1014.1 970.7 -7.1
12 20.02 ЮВ 1 50 км ледяные иглы ясно -32.5 -36.7 66 -37 -37 опасность
обморожения
1013.8 969.4
15 20.02 Ю 1 50 км ясно -35.0 -39.7 62 -40 -40 опасность
обморожения
1014.0 969.1
18 20.02 ЮВ 1 50 км ясно -37.3 -42.2 60 -42 -42 опасность
обморожения
1014.0 968.7
21 20.02 штиль 0 50 км ясно -38.4 -43.6 58 -38 -38 опасность
обморожения
1013.9 968.4 -38.7 0.0 156
00 21.02 Ю 1 50 км ясно -20.7 -25.7 64 -24 -19 1010.3 968.0
03 21.02 Ю 1 50 км ясно -11.9 -22.2 42 -14 -10 1006.0 965.3
06 21.02 З 2 50 км ясно -10.9 -21.5 41 -15 -15 1005.8 965.3
09 21.02 Ю 1 50 км ясно -26.0 -29.1 75 -30 -30 1009.8 966.7 -10.2
12 21.02 ЮВ 1 50 км ясно -31.2 -35.3 67 -35 -35 опасность
обморожения
1010.8 966.7
15 21.02 штиль 0 50 км ясно -34.7 -39.4 62 -35 -35 опасность
обморожения
1010.1 965.4
18 21.02 штиль 0 50 км ясно -36.6 -41.5 60 -37 -37 опасность
обморожения
1010.1 965.1
21 21.02 штиль 0 50 км 3/3 1000 м
[Sc]
-34.9 -39.7 61 -35 -35 опасность
обморожения
1009.5 964.8 -36.9 155
00 22.02 С 1 50 км 8/3 1000 м
[Sc Ac trans Ci fib]
-21.0 -25.8 65 -24 -22 1005.8 963.7
03 22.02 СЗ 2 50 км 8/3 1000 м
[Cu med, cong Ac trans Ci fib]
-11.5 -19.8 50 -16 -15 1003.2 962.7
06 22.02 З 2 50 км 9/3 1000 м
[Cu med, cong Ac trans Ci fib]
-11.7 -20.0 50 -16 -16 1003.3 962.7
09 22.02 штиль 0 50 км 6/3 1000 м
[Sc Ci sp]
-23.7 -26.7 76 -24 -24 1005.3 962.7 -10.8
12 22.02 ЮВ 1 50 км 4/3 1000 м
[Sc Ci sp]
-31.9 -36.1 66 -36 -36 опасность
обморожения
1004.7 960.8
15 22.02 штиль 0 50 км ясно -35.2 -39.8 63 -35 -35 опасность
обморожения
1004.3 959.8
21 22.02 штиль 0 50 км 8/0
[Ac trans Ci fib]
-38.4 -43.6 58 -38 -38 опасность
обморожения
1003.6 958.5 -38.6 153
00 23.02 СВ 1 50 км 3/0
[Ac trans]
-22.2 -27.3 63 -25 -22 999.7 957.6
03 23.02 СЗ 2 50 км ясно -12.0 -22.5 41 -17 -13 997.7 957.3
06 23.02 З 2 50 км 3/0
[Ci fib]
-11.1 -23.8 34 -15 -15 996.2 956.0
09 23.02 ЮВ 1 50 км ясно -21.3 -27.5 57 -24 -24 999.2 957.3 -10.3
12 23.02 штиль 0 50 км ясно -30.9 -34.7 69 -31 -31 опасность
обморожения
1000.9 957.3
15 23.02 В 1 50 км ясно -35.1 -39.6 63 -40 -40 опасность
обморожения
1001.7 957.3
21 23.02 Ю 1 50 км ясно -38.5 -43.7 58 -44 -43 опасность
обморожения
1001.7 956.7 -39.2 153
00 24.02 С 1 50 км ясно -18.3 -25.9 51 -21 -16 997.3 956.0

 

Местоположение метеостанции Начики (Камчатский край, Россия): широта 53.12 долгота 157.70 высота над уровнем моря 317 м.

В архиве по умолчанию представлена погода в Начиках за последнюю неделю. Архивные данные за месяц целиком и за предыдущие месяцы, начиная с января 2011 года, Вы можете получить, выбрав интересующий диапазон дат из раскрывающегося списка и нажав кнопку "Ввод!".


*Определитесь, кто Вы:
робот инопланетянин человек

Внимание! Время в таблицах - всемирное. Для получения местного времени необходимо прибавить поправку, которая равна 12 ч.

Смотрите также архив погоды в соседних городах и на ближайших метеорологических станциях:

Погода в Сосновке (Камчатский край, Россия) (40 км)
Погода в Петропавловск-Камч. 2 (Камчатский край, Россия) (54 км)
Погода в Петропавловск-Камчатском (Камчатский край, Россия) (66 км)
Погода в Петропавловском Маяке (Камчатский край, Россия) (72 км)
Погода в Большерецке (Камчатский край, Россия) (99 км)
Погода в Пущино (Камчатский край, Россия) (120 км)
Погода в Водопадной (Камчатский край, Россия) (146 км)
Погода в Соболево (Камчатский край, Россия) (177 км)
Погода в Мильково (Камчатский край, Россия) (181 км)
Погода в Семячике (Камчатский край, Россия) (183 км)

Пояснения к столбцам:

Ветер - указаны скорость ветра в м/с - средняя за 10 мин, порывы в срок и между сроками (в фигурных скобках) и направление, откуда дует ветер: С - северный, СВ - северо-восточный, В - восточный, ЮВ - юго-восточный, Ю - южный, ЮЗ - юго-западный, З - западный, СЗ - северо-западный.
Видимость - горизонтальная дальность видимости в метрах или километрах. При видимости от 1 до 10 км при отсутствии осадков обычно наблюдается дымка, при ухудшении видимости до 1 км и менее - туман. В сухую погоду видимость может ухудшаться дымом, пылью или мглою.
Явления - указаны атмосферные явления, наблюдавшиеся в срок или в последний час перед сроком; фигурными скобками обозначены явления, наблюдавшиеся между сроками (за 1-3 часа до срока); квадратными скобками обозначены град или гололедные отложения с указанием их диаметра в мм.
Облачность - указаны через наклонную черту общая и нижняя облачность в баллах и высота нижней границы облаков в метрах; квадратными скобками обозначены формы облаков: Ci - перистые, Cs - перисто-слоистые, Cc - перисто-кучевые, Ac - высококучевые, As - высокослоистые, Sc - слоисто-кучевые, Ns - слоисто-дождевые, Cu - кучевые, Cb - кучево-дождевые. Подробнее классификацию облаков см. в Атласе облаков (PDF).
T - Температура воздуха - температура, измеренная на высоте 2 м над землей.
Td - Температура точки росы - температура, при понижении до которой содержащийся в воздухе водяной пар достигнет насыщения.
f - Относительная влажность воздуха - влажноcть воздуха, измеренная на высоте 2 м над землей.
Te - Эффективная температура - температура, которую ощущает одетый по сезону человек в тени. Характеристика душности погоды. При расчете учитывается влияние влажности воздуха и скорости ветра на теплоощущения человека.
Tes - Эффективная температура на солнце - температура, которую ощущает человек, с поправкой на солнечный нагрев. Характеристика знойности погоды. Зависит от высоты солнца над горизонтом, облачности и скорости ветра. Ночью, в пасмурную погоду, а также при ветре 12 м/с и более поправка равна нулю.
P - Атмосферное давление - приведенное к уровню моря атмосферное давление.
Po - Атмосферное давление - измеренное на уровне метеостанции атмосферное давление.
Tmin - Минимальная температура - минимум температуры воздуха на высоте 2 м над землей.
Tmax - Максимальная температура - максимум температуры воздуха на высоте 2 м над землей.
R - Количество осадков - Количество выпавших осадков за период времени, мм. При наведении курсора мыши на число - период времени, за который выпало указанное количество осадков.
R24 - Количество осадков - Количество выпавших осадков за 24 часа, мм.
S - Снежный покров - Высота снежного покрова, см. При наведении курсора мыши на число - состояние снежного покрова и степень покрытия местности в баллах.